Погода в Ломове

Россия / Белгородская область     50°44′56″N   36°56′17″E
темп.,
°C
ветер,
м/с
пор.,
м/с
влажн.,
%
обл.,
%
осадки,
мм/ч
давл.,
гПа
погр.,
м
14 апреля, ср
ср1400:00+10ююз368678 0.0 1021157
03:00+9ю128841 0.0 102133
06:00+8вюв118984 0.0 102011
09:00+12в227180 0.0 1019390
12:00+15в126386 0.3 1018853
15:00+16ю2355100 1.3 1016998
18:00+14зюз2367100 1.3 1015159
21:00+12зсз2377100 1.6 101563
15 апреля, чт
чт1500:00+10ссз228699 0.0 101522
03:00+10ссв237997 0.0 101440
06:00+10юв2272100 0.0 101327
09:00+12ю236896 0.0 1013293
12:00+15ююз4563100 1.7 1013972
15:00+16ююз564916 2.8 10131782
18:00+14ююз466038 0.2 1013580
21:00+11юз598492 0.4 1014332
16 апреля, пт
пт1600:00+9ююв238929 0.2 101490
03:00+8ююв239315 0.2 101454
06:00+7юв36965 0.0 1015139
09:00+10ю567763 0.0 1016739
12:00+13ю57525 0.0 10161341
15:00+14ю684283 0.0 10162348
18:00+12ююз455899 0.0 1017916
21:00+9юз227113 0.0 101835
17 апреля, сб
сб1700:00+8ссз1174100 0.0 101911
03:00+7всв3686100 0.6 1020247
06:00+7св1191100 2.6 1020113
09:00+7з2492100 5.9 1020311
12:00+7з3588100 0.9 1020635
15:00+7з4586100 1.8 1020563
18:00+8зсз3482100 0.7 1020534
21:00+6ссв1192100 0.7 102242
18 апреля, вс
вс1800:00+6всв349255 0.1 1022123
03:00+6в3495100 0.8 1022142
06:00+6всв229494 2.1 102382
09:00+8юв4577100 2.9 1023602
12:00+10ююв5569100 0.9 10231110
15:00+9ююв4476100 3.4 1024651
18:00+8в468569 0.8 1024443
21:00+7св348891 1.0 1024172